Temperature
23 23 23 23 21 19 22 23 23 24 24 24 24 23 22 21 22 21 21 21 21 20 20 20 19 19 19 19 19 19 19 19 19 19 19 19 19 19 19 19 19 19 19 19 19 19 19 19 19
23 23 23 23 19 21 22 23 23 24 24 24 24 23 22 21 21 21 20 20 20 20 20 20 19 19 19 19 19 19 19 19 18 18 18 19 19 19 19 19 19 19 19 19 19 19 18 18 18
23 23 23 19 21 21 24 24 24 24 24 24 23 22 22 21 21 21 20 20 20 20 20 20 19 19 19 19 19 19 19 19 19 18 18 19 19 19 19 19 19 19 19 19 19 18 18 18 18
23 23 23 20 23 23 23 24 24 24 25 24 23 21 21 21 21 21 20 20 20 20 20 20 19 19 19 19 19 19 19 19 18 18 18 18 18 19 19 19 19 19 19 19 18 18 18 18 18
24 23 21 21 22 22 23 24 24 24 24 24 23 21 21 21 21 21 20 20 20 20 20 19 19 19 19 19 19 19 19 18 18 18 18 18 18 18 18 19 19 19 18 18 18 18 18 18 18
24 21 20 21 22 22 23 25 25 24 23 23 22 21 21 21 21 21 20 20 20 20 20 19 19 19 19 19 19 19 18 18 18 18 18 18 18 18 18 18 19 19 18 18 18 18 18 17 17
23 20 21 22 22 23 25 25 25 23 23 23 23 20 20 21 21 20 20 20 20 20 20 20 19 19 19 19 19 18 18 18 18 18 18 18 18 18 18 18 18 18 18 18 18 18 17 17 17
24 20 21 21 22 23 24 25 25 25 24 24 24 21 21 21 21 20 20 19 19 19 20 20 20 19 19 19 18 18 18 18 18 18 18 18 18 18 18 18 18 18 18 18 18 18 17 17 17
24 20 21 22 22 23 23 24 25 25 24 24 24 24 24 22 21 20 20 19 19 19 20 20 20 19 19 19 18 18 18 18 18 18 18 18 18 18 18 18 18 18 18 18 18 17 17 17 17
23 20 22 22 22 22 23 24 25 25 24 23 24 24 23 22 21 20 20 20 20 20 20 20 20 19 19 19 19 18 18 18 18 18 18 18 18 18 18 18 18 18 18 17 17 17 17 17 17
22 21 22 22 23 23 23 24 25 24 23 24 24 24 23 22 21 21 21 21 21 20 20 20 20 19 19 19 19 19 18 18 18 19 18 18 18 18 18 18 18 18 17 17 17 17 17 17 17
22 22 22 23 23 23 23 24 25 24 25 26 26 25 24 23 22 22 22 21 21 21 20 20 20 19 19 19 19 19 19 19 19 19 18 18 18 18 18 18 18 18 17 17 17 17 17 17 16
22 22 23 23 24 23 24 24 24 24 25 26 26 25 25 24 24 23 23 22 21 21 21 20 20 20 19 19 19 19 19 19 19 19 18 18 18 18 18 18 18 17 17 17 17 17 17 17 17
22 22 22 22 23 23 23 23 23 23 24 25 25 24 25 24 24 23 23 22 22 22 21 21 20 20 20 19 19 19 19 19 19 19 18 18 18 18 18 18 18 17 17 17 17 17 17 17 17
22 22 21 21 21 22 22 22 22 22 23 23 23 23 23 24 23 23 23 23 23 22 22 21 21 20 20 20 19 19 19 19 19 19 18 18 18 18 18 18 18 17 17 17 17 17 17 17 17
21 21 21 21 21 21 22 22 21 22 22 22 22 22 22 23 23 24 24 23 23 23 22 22 21 21 20 20 20 19 19 19 19 19 18 18 18 17 17 18 18 17 17 17 17 17 17 17 17
19 19 20 20 21 20 21 21 21 22 21 21 21 22 22 22 22 23 24 24 23 23 23 22 22 22 21 20 20 20 19 19 19 19 18 18 18 17 17 17 17 17 17 17 17 17 17 17 17
20 19 19 20 20 20 20 19 19 21 20 20 20 21 21 22 22 23 23 23 24 23 23 23 22 22 21 21 20 19 19 19 19 19 18 18 18 18 18 17 17 17 17 17 17 17 17 17 17
20 19 19 19 20 19 19 18 18 19 18 18 18 19 19 21 22 22 23 23 23 23 23 23 23 22 22 21 20 20 20 19 19 19 18 18 18 18 18 18 17 17 17 17 17 17 16 16 16
18 18 18 18 19 19 18 17 18 17 17 17 17 17 17 19 21 22 22 23 23 24 24 24 23 23 22 21 21 20 20 19 19 19 18 18 18 18 18 18 17 17 17 17 17 16 16 16 16
18 18 18 18 18 18 18 17 17 16 17 16 16 16 16 17 19 21 22 23 23 23 24 24 23 23 22 22 21 20 20 19 19 19 18 18 18 18 17 17 17 17 17 17 17 16 16 16 16
17 18 18 18 17 16 17 16 16 15 15 16 15 15 15 16 18 20 21 22 23 23 23 22 22 22 22 21 20 20 19 19 19 19 18 18 18 17 17 17 17 17 17 17 17 16 16 16 15
18 17 17 17 16 15 15 15 15 14 14 15 15 15 15 15 17 19 20 21 22 22 21 21 21 20 20 20 19 19 19 19 18 18 18 17 17 17 17 17 17 16 16 16 16 16 16 16 15
17 16 15 14 14 15 15 15 14 14 14 14 15 14 14 15 16 17 18 19 20 20 20 20 19 19 19 18 18 18 18 18 18 18 17 17 17 17 17 17 16 16 16 16 16 16 16 15 15
15 15 14 14 14 14 15 15 14 14 14 14 14 14 14 14 15 16 17 17 17 18 18 18 18 18 18 17 18 18 18 18 17 17 17 17 17 16 16 16 16 16 16 16 16 15 15 15 15
15 14 14 13 13 14 14 14 14 14 14 14 14 14 14 14 14 15 15 16 17 17 17 17 17 17 17 17 17 17 18 17 17 17 17 17 16 16 16 16 16 16 16 15 15 15 15 15 15
14 13 13 12 13 14 14 14 14 14 13 13 13 13 14 13 14 14 15 15 16 16 16 16 16 16 17 17 17 17 18 17 17 17 17 17 16 16 16 16 16 16 16 15 15 15 15 14 14
13 12 11 12 12 13 14 13 12 12 12 13 13 13 13 14 14 14 14 15 15 15 15 16 16 16 17 17 17 17 17 17 17 17 17 17 16 16 16 16 16 16 15 15 15 15 15 14 14
12 12 11 10 11 12 13 12 12 11 11 12 12 13 13 13 14 14 14 14 15 15 15 16 16 16 17 17 17 17 18 17 17 17 17 17 16 16 16 16 16 15 15 15 15 15 14 14 14
12 11 11 11 11 12 12 12 12 11 11 11 12 12 13 13 14 14 14 14 15 15 16 16 16 17 17 17 17 17 18 17 17 17 17 17 16 16 16 16 16 15 15 15 15 15 14 14 14
Wind_Speed
6 3 3 4 6 6 2 3 2 2 3 3 4 7 7 4 1 2 3 10 12 13 12 15 15 13 12 12 13 13 13 14 14 15 15 14 13 12 11 11 10 10 9 9 9 9 9 9 8
2 1 4 5 6 3 3 3 2 1 5 5 5 5 5 4 3 5 5 8 13 14 13 14 15 14 13 12 12 13 13 14 14 15 14 13 12 11 11 10 10 10 9 9 8 8 8 8 8
0 2 4 5 4 4 2 1 2 2 4 2 4 5 4 3 5 6 6 11 12 11 12 14 16 14 13 12 12 13 13 14 14 14 13 12 12 11 10 10 10 9 9 9 8 8 8 8 8
3 4 5 5 3 2 3 2 3 5 2 5 4 5 3 2 7 6 11 13 13 10 11 14 16 14 13 13 13 13 13 14 14 14 13 12 11 10 9 9 9 9 8 8 8 8 8 8 7
4 4 5 4 4 5 4 2 5 5 3 3 4 4 3 3 7 12 13 13 12 10 10 13 16 15 14 13 13 13 13 13 14 13 13 12 11 10 9 8 8 7 7 7 7 7 8 8 7
4 5 5 2 6 7 4 1 5 4 4 4 5 4 2 3 8 11 12 10 10 11 9 12 15 15 14 14 14 13 13 13 13 13 13 12 11 10 8 7 7 6 5 5 5 6 7 8 7
4 4 4 1 4 5 4 2 4 6 5 5 6 5 2 3 7 10 9 8 8 8 7 8 12 14 14 14 14 13 13 13 13 13 13 12 11 10 8 7 6 5 4 3 4 5 6 7 6
5 5 3 1 1 4 5 3 2 5 4 4 5 8 6 7 8 8 8 7 7 7 7 6 9 11 11 12 14 14 13 13 13 12 12 12 11 10 9 7 6 5 4 3 3 4 5 6 6
4 5 2 2 2 4 4 3 1 2 6 3 4 7 6 11 11 9 6 5 6 8 6 7 6 8 9 10 12 13 13 13 13 12 12 10 8 8 7 7 6 5 3 3 3 4 5 7 7
5 4 5 4 4 3 4 2 1 4 4 2 2 3 9 13 13 12 9 10 10 10 8 7 7 6 8 9 10 10 10 11 11 10 9 9 8 7 6 7 7 5 4 2 2 4 6 7 7
3 5 4 3 4 3 4 3 1 7 5 7 8 10 14 13 14 13 12 11 11 9 9 9 7 6 6 5 7 7 8 9 10 10 10 9 7 5 4 3 2 2 3 4 4 5 5 5 5
1 2 3 3 2 2 3 3 1 4 6 7 10 16 17 17 17 16 15 12 9 8 10 10 9 7 6 6 5 6 6 6 6 9 10 8 5 4 4 3 2 2 3 2 2 2 2 3 4
0 2 2 4 4 4 4 4 3 3 7 2 9 14 17 18 17 14 12 10 9 10 11 10 11 9 7 6 5 5 5 6 8 9 10 10 5 4 3 3 3 3 2 1 1 1 0 3 4
2 2 3 4 3 3 4 5 1 3 6 3 10 14 15 16 15 12 11 11 12 12 12 11 12 11 9 7 6 6 6 8 9 9 10 11 8 5 4 3 3 4 4 3 2 1 2 3 4
2 1 2 3 4 3 3 5 0 4 5 1 6 10 12 12 12 13 13 13 13 12 12 12 13 12 11 10 9 6 7 8 6 8 11 11 9 7 5 4 4 4 5 4 2 3 3 4 4
2 2 1 3 3 4 2 6 2 2 4 2 4 7 9 11 12 13 12 12 11 10 12 13 13 13 13 11 9 5 6 7 6 9 10 12 12 10 6 4 4 5 6 4 3 3 3 3 4
5 2 3 5 2 3 2 6 6 3 3 4 6 6 8 9 12 13 13 14 13 13 13 13 13 14 14 11 8 6 5 6 7 9 9 11 13 12 8 5 4 5 4 3 4 2 3 3 4
2 2 3 5 3 2 3 7 10 6 4 6 7 7 7 10 14 13 14 15 14 13 13 14 13 12 11 9 6 5 5 5 5 6 8 11 12 13 10 5 5 4 3 3 4 4 2 3 4
2 3 6 6 3 1 5 8 10 8 7 8 8 8 9 10 11 10 12 14 14 15 15 15 14 12 10 7 7 6 5 5 5 5 8 10 11 11 9 6 5 4 4 4 4 3 3 2 3
2 3 6 6 2 2 5 7 5 6 7 9 11 11 11 12 11 10 11 13 17 18 18 16 15 13 12 9 6 3 3 3 3 3 5 8 9 10 9 7 7 6 5 5 6 4 3 2 3
3 4 5 6 3 2 3 6 4 5 6 11 13 12 13 13 14 12 9 10 13 15 16 14 13 11 10 8 5 4 3 3 2 3 4 5 7 8 7 7 7 7 7 7 7 7 7 5 3
5 5 5 4 1 4 1 5 5 7 8 14 18 17 17 18 15 11 7 6 8 10 9 9 10 10 9 8 6 5 4 4 5 3 3 4 5 6 6 6 6 7 6 7 8 8 6 6 5
4 5 2 1 3 2 1 3 6 6 10 15 17 18 18 18 16 11 6 2 2 5 8 9 12 11 9 7 4 3 2 2 2 3 4 4 3 4 5 6 5 6 6 7 8 8 8 7 6
4 4 4 4 3 2 4 4 4 5 10 15 16 17 18 18 16 12 9 8 7 9 10 11 13 11 9 6 2 4 4 4 4 4 4 3 2 2 4 4 5 5 5 6 7 8 9 8 7
8 6 5 5 2 5 2 3 1 5 9 11 15 17 16 15 15 13 10 8 8 9 10 10 12 11 8 5 4 5 6 6 5 5 4 4 2 2 3 4 4 4 5 5 5 6 7 8 8
6 1 2 4 4 4 2 2 2 5 9 10 11 12 13 14 14 12 10 8 8 9 9 8 9 9 6 4 4 4 5 4 3 4 4 4 3 3 3 4 4 4 4 4 5 4 5 6 8
6 4 2 2 2 2 2 1 2 11 16 16 16 15 14 14 13 12 10 8 8 8 8 8 7 5 4 4 4 4 4 4 4 4 3 3 3 3 3 4 3 3 3 3 4 3 4 5 6
4 2 4 2 2 3 1 2 7 17 20 19 18 16 14 12 12 11 9 9 8 7 8 8 5 2 3 4 4 3 3 4 4 4 4 4 3 3 4 4 4 3 3 3 3 2 2 4 4
7 6 4 2 2 1 0 2 8 13 15 16 16 14 12 11 10 9 8 7 7 6 5 4 1 1 2 3 3 4 3 4 4 4 4 4 4 4 5 5 4 4 3 3 3 2 2 2 3
3 4 3 2 2 1 1 2 8 12 13 15 16 15 14 12 9 6 6 7 6 5 4 3 2 2 3 4 4 4 3 4 4 3 3 3 3 4 4 4 4 4 4 4 4 3 3 3 2
Wind_Direction
339 47 91 57 50 49 30 321 284 321 44 37 68 89 99 95 134 163 117 142 137 148 161 158 156 153 150 146 144 144 143 140 136 133 129 126 123 121 119 118 116 114 113 114 115 116 114 112 107
327 86 58 57 77 66 313 295 272 240 127 134 80 80 83 76 81 111 129 147 145 151 157 157 159 156 153 151 148 146 146 143 140 137 134 131 128 125 123 121 119 117 115 114 114 114 114 111 104
326 72 73 67 91 155 237 250 236 77 117 95 72 58 87 119 135 152 153 143 145 150 153 161 161 159 156 155 152 150 149 147 143 140 138 136 132 128 124 123 121 117 114 109 106 106 107 105 100
92 54 57 67 50 243 251 258 163 121 87 59 93 71 60 97 152 152 139 144 148 150 154 167 165 163 161 159 155 152 151 150 148 145 143 139 135 131 128 127 126 122 116 108 100 96 95 93 85
61 77 58 43 344 305 281 236 159 139 125 84 102 100 51 19 118 132 142 150 152 152 159 173 169 168 166 163 159 156 154 153 152 151 148 144 142 138 137 136 134 131 123 111 99 89 84 78 66
55 66 75 25 322 316 315 324 144 129 124 121 115 105 54 116 128 144 149 152 156 158 161 173 173 172 171 168 164 161 159 158 157 156 154 151 148 145 146 146 145 142 135 119 99 81 73 64 55
96 84 112 121 327 331 351 18 151 144 147 164 138 113 113 166 156 147 146 143 150 159 160 168 173 174 175 173 170 167 165 164 162 161 159 157 154 152 153 155 156 154 147 132 101 76 64 55 48
113 98 92 86 349 300 322 340 182 153 159 132 128 145 184 194 155 136 129 136 151 161 166 164 167 169 171 174 175 173 170 169 167 165 163 163 160 158 159 162 165 163 157 137 99 72 60 54 49
87 77 125 203 207 276 319 356 6 120 120 128 159 176 189 149 141 132 130 145 165 176 173 168 165 164 163 169 178 175 174 173 170 170 170 164 157 156 157 165 173 171 160 131 91 69 64 62 48
80 123 210 213 193 245 298 270 215 118 127 140 96 108 131 144 157 165 174 180 186 188 184 174 171 163 162 172 171 166 167 169 165 165 163 153 154 158 160 178 180 178 162 122 79 58 64 63 52
121 174 222 239 214 240 290 298 176 140 189 212 194 165 150 162 174 185 191 191 194 189 187 182 177 167 165 161 156 156 155 156 157 160 158 157 157 161 157 162 161 114 104 66 41 46 59 66 65
113 247 235 271 225 229 263 310 10 173 236 248 198 166 164 175 186 194 197 198 190 181 188 183 180 173 173 164 161 159 156 158 161 165 166 161 160 165 162 164 153 113 92 69 24 27 67 102 98
345 284 276 292 292 273 290 280 276 266 301 265 154 164 176 186 194 201 202 198 191 192 191 184 179 177 173 168 170 169 168 169 170 171 176 176 173 179 174 171 171 164 155 157 331 339 121 145 139
266 285 309 333 338 339 302 289 273 310 334 133 161 181 189 195 198 199 203 202 199 199 195 185 182 180 175 177 180 179 177 174 173 179 185 189 191 187 178 177 182 187 185 193 202 177 152 150 143
280 334 11 14 357 336 323 313 333 328 342 176 195 199 201 206 204 208 210 211 206 202 195 190 187 181 181 184 188 184 181 176 178 186 191 195 202 201 191 189 198 195 183 180 154 116 114 124 128
36 49 328 316 360 340 13 282 274 337 10 301 255 232 221 220 217 216 214 216 210 200 196 196 194 186 188 189 188 183 179 179 184 187 191 199 206 208 199 203 214 191 168 161 145 129 111 122 133
31 16 309 309 355 11 29 276 287 320 341 302 286 266 248 243 239 230 220 217 211 202 198 196 196 188 190 188 186 185 178 184 186 186 191 201 206 207 202 211 217 186 160 162 164 146 141 150 150
275 277 279 280 295 3 294 275 294 318 322 302 297 291 273 257 248 240 230 221 213 205 199 197 197 190 183 176 168 173 188 195 186 186 194 198 205 206 203 209 217 188 172 177 168 155 143 144 148
210 226 259 263 267 265 268 280 295 328 349 339 330 315 299 281 268 255 240 227 214 208 202 198 195 186 174 170 174 178 198 198 199 198 194 195 200 202 199 205 201 190 195 196 175 148 152 140 132
201 253 269 283 309 250 288 287 309 5 19 6 352 337 321 311 298 277 252 230 216 210 205 198 193 185 180 182 172 159 155 178 190 191 189 192 191 193 199 194 194 189 192 192 182 163 156 161 162
265 235 257 270 330 18 328 313 353 353 9 10 5 353 342 331 314 294 270 239 220 214 205 195 185 175 167 151 131 106 96 91 133 187 197 194 189 190 193 191 188 188 187 194 190 181 175 176 193
287 288 261 259 285 287 15 292 315 335 345 1 357 353 347 339 328 307 284 252 216 202 182 162 148 139 132 129 145 172 180 191 199 188 186 179 184 188 194 191 188 190 191 194 193 186 181 170 182
296 334 347 292 195 276 297 221 304 349 354 349 347 347 346 345 340 336 334 316 148 134 124 119 114 113 110 112 152 197 198 183 151 148 158 164 177 189 192 192 190 195 198 200 192 184 186 185 184
343 8 22 40 90 247 242 189 324 5 343 334 339 343 346 350 352 359 20 41 69 90 101 107 107 104 102 108 153 206 198 181 164 160 158 159 168 183 191 188 193 200 200 201 197 193 193 195 191
22 31 358 341 350 244 272 145 79 359 348 334 331 336 343 350 356 3 17 40 57 75 88 98 106 103 109 132 186 204 198 189 181 173 169 163 168 187 194 180 190 199 206 201 190 193 201 197 199
340 44 210 252 243 283 346 163 146 10 344 334 331 334 344 354 359 5 13 39 62 69 78 87 100 112 129 158 200 203 188 181 179 171 168 173 181 187 177 173 185 197 196 190 183 192 203 201 207
358 347 278 225 254 262 292 39 351 351 352 352 348 345 349 354 358 6 16 34 60 69 73 76 85 107 144 179 187 186 178 175 179 175 168 168 171 169 160 160 163 167 167 170 168 189 202 199 209
41 345 14 8 244 241 278 48 358 346 345 345 344 342 343 349 354 6 20 28 44 54 62 64 67 135 180 177 170 174 175 184 179 164 163 162 161 152 147 145 145 143 142 146 152 177 201 203 214
359 10 5 316 267 230 167 59 11 346 342 344 343 342 344 349 350 3 15 21 32 38 45 47 6 214 174 166 162 158 161 166 161 157 161 160 158 160 163 161 156 157 158 157 158 175 179 200 223
30 359 335 312 317 343 128 68 5 350 350 356 352 352 356 359 3 7 19 22 17 13 2 332 284 237 198 169 156 154 138 125 120 128 143 147 157 170 173 168 169 175 176 175 178 188 186 195 218
Height
1492 1491 1491 1492 1495 1508 1510 1504 1499 1496 1495 1496 1495 1496 1498 1501 1504 1509 1505 1505 1508 1510 1513 1516 1519 1521 1523 1525 1526 1528 1529 1530 1531 1532 1533 1535 1536 1536 1537 1538 1538 1539 1539 1539 1540 1540 1541 1542 1543
1492 1491 1493 1493 1506 1520 1514 1502 1499 1496 1496 1497 1497 1498 1499 1501 1502 1503 1504 1506 1509 1511 1514 1516 1519 1521 1523 1525 1526 1528 1529 1530 1532 1533 1534 1536 1537 1537 1538 1539 1539 1540 1540 1541 1541 1541 1542 1543 1544
1492 1492 1494 1498 1509 1516 1509 1499 1498 1496 1497 1497 1498 1499 1501 1502 1503 1504 1505 1507 1509 1512 1514 1517 1519 1521 1523 1525 1526 1528 1529 1531 1532 1534 1535 1536 1537 1538 1539 1539 1540 1540 1541 1542 1542 1542 1543 1544 1545
1493 1494 1496 1503 1508 1505 1502 1497 1497 1497 1498 1498 1499 1501 1502 1504 1504 1505 1506 1508 1510 1512 1515 1517 1519 1521 1523 1525 1526 1528 1530 1531 1533 1534 1535 1537 1538 1539 1539 1540 1540 1541 1542 1542 1543 1543 1544 1544 1545
1493 1494 1501 1509 1508 1502 1497 1496 1496 1497 1498 1499 1500 1502 1503 1505 1505 1506 1507 1508 1510 1512 1515 1517 1520 1521 1523 1525 1526 1528 1530 1531 1533 1534 1536 1537 1538 1539 1539 1540 1541 1541 1542 1543 1544 1544 1545 1545 1546
1494 1495 1511 1515 1509 1501 1496 1495 1496 1497 1498 1499 1500 1502 1504 1505 1506 1507 1508 1509 1511 1513 1515 1517 1520 1522 1523 1525 1526 1528 1530 1532 1533 1534 1535 1537 1538 1539 1539 1540 1541 1542 1543 1543 1544 1545 1545 1546 1547
1495 1501 1509 1510 1510 1503 1497 1496 1496 1496 1498 1499 1500 1502 1504 1505 1507 1508 1509 1510 1512 1514 1515 1517 1519 1521 1523 1525 1527 1528 1530 1532 1533 1534 1535 1536 1537 1538 1539 1540 1541 1542 1543 1544 1544 1545 1546 1546 1548
1495 1501 1508 1510 1509 1505 1498 1496 1496 1497 1498 1500 1501 1501 1503 1505 1507 1508 1509 1511 1512 1514 1515 1517 1519 1521 1523 1525 1526 1528 1530 1531 1533 1534 1536 1536 1537 1538 1539 1540 1541 1542 1543 1544 1545 1545 1546 1547 1548
1496 1505 1512 1507 1506 1503 1498 1497 1497 1497 1498 1500 1500 1501 1502 1504 1506 1508 1509 1510 1511 1513 1514 1516 1518 1520 1522 1524 1526 1528 1530 1531 1533 1534 1536 1537 1537 1538 1539 1540 1541 1542 1543 1544 1545 1546 1546 1547 1549
1496 1508 1505 1500 1500 1500 1498 1497 1497 1497 1499 1499 1500 1500 1502 1503 1505 1506 1507 1508 1510 1511 1513 1515 1517 1519 1521 1523 1525 1527 1529 1530 1532 1534 1535 1536 1537 1538 1539 1540 1541 1542 1544 1545 1546 1546 1547 1548 1550
1497 1502 1499 1497 1498 1498 1497 1496 1496 1496 1499 1497 1497 1498 1500 1501 1503 1504 1506 1507 1509 1511 1512 1514 1516 1518 1520 1522 1524 1526 1528 1530 1531 1533 1535 1536 1537 1538 1539 1540 1541 1542 1544 1545 1546 1547 1548 1550 1551
1498 1498 1498 1497 1496 1496 1496 1496 1496 1496 1496 1495 1495 1495 1497 1499 1500 1502 1504 1506 1508 1510 1512 1514 1515 1517 1519 1521 1523 1525 1527 1529 1530 1532 1534 1535 1537 1538 1539 1540 1541 1543 1545 1546 1547 1549 1549 1551 1552
1499 1498 1498 1497 1496 1495 1495 1495 1495 1494 1494 1492 1493 1494 1495 1497 1498 1501 1503 1505 1507 1509 1511 1513 1514 1516 1518 1519 1521 1523 1525 1527 1529 1531 1533 1535 1537 1538 1539 1540 1542 1544 1545 1547 1548 1549 1550 1551 1552
1499 1498 1498 1496 1496 1496 1495 1494 1494 1493 1492 1491 1491 1492 1494 1495 1497 1500 1502 1503 1505 1507 1509 1511 1513 1515 1516 1518 1520 1522 1524 1526 1528 1530 1533 1535 1536 1538 1539 1540 1542 1544 1545 1547 1548 1549 1550 1551 1552
1498 1499 1499 1498 1496 1496 1496 1496 1495 1494 1492 1492 1491 1492 1493 1494 1496 1497 1499 1501 1503 1505 1508 1510 1512 1513 1515 1517 1519 1521 1523 1525 1527 1529 1531 1534 1536 1537 1539 1540 1542 1544 1545 1547 1548 1549 1550 1551 1551
1498 1502 1505 1500 1497 1496 1499 1503 1495 1493 1492 1492 1491 1491 1492 1492 1494 1495 1497 1499 1502 1504 1506 1508 1510 1511 1513 1515 1517 1519 1521 1523 1525 1527 1530 1532 1535 1537 1538 1540 1541 1543 1545 1546 1547 1548 1549 1550 1551
1506 1511 1509 1503 1498 1497 1499 1501 1494 1493 1492 1492 1491 1491 1490 1491 1491 1492 1494 1496 1498 1501 1503 1505 1507 1509 1511 1513 1516 1518 1520 1522 1524 1526 1528 1530 1533 1535 1536 1538 1540 1542 1544 1545 1546 1547 1549 1550 1550
1511 1511 1510 1507 1499 1499 1501 1500 1494 1492 1492 1491 1491 1489 1488 1488 1487 1488 1489 1491 1494 1496 1499 1501 1504 1506 1509 1511 1514 1516 1518 1520 1522 1524 1526 1528 1530 1532 1534 1536 1538 1540 1541 1543 1544 1546 1547 1549 1549
1505 1508 1511 1505 1498 1500 1501 1501 1495 1493 1492 1491 1490 1488 1486 1484 1483 1483 1484 1486 1488 1491 1494 1496 1499 1502 1505 1508 1510 1513 1515 1518 1520 1522 1524 1526 1527 1529 1530 1533 1535 1536 1538 1540 1541 1543 1545 1546 1548
1506 1509 1509 1503 1499 1500 1502 1501 1496 1495 1495 1495 1492 1488 1484 1481 1478 1478 1477 1479 1480 1483 1486 1489 1493 1497 1501 1504 1508 1511 1514 1516 1518 1520 1522 1523 1524 1526 1527 1529 1530 1532 1534 1536 1538 1539 1541 1543 1545
1507 1509 1507 1506 1502 1501 1504 1504 1500 1497 1496 1494 1492 1488 1484 1480 1475 1472 1471 1472 1473 1476 1479 1482 1486 1491 1496 1501 1506 1509 1512 1514 1516 1517 1519 1520 1521 1523 1524 1525 1527 1528 1530 1532 1533 1535 1537 1539 1541
1511 1503 1503 1503 1509 1513 1508 1518 1505 1502 1498 1494 1491 1487 1483 1477 1472 1468 1467 1467 1468 1470 1473 1477 1481 1486 1492 1497 1503 1506 1509 1511 1513 1515 1517 1518 1519 1520 1521 1522 1523 1524 1526 1527 1528 1530 1532 1534 1536
1506 1502 1503 1504 1508 1513 1512 1516 1513 1505 1503 1498 1494 1490 1484 1477 1471 1467 1464 1464 1464 1466 1470 1473 1476 1481 1488 1494 1501 1504 1507 1509 1511 1512 1513 1514 1515 1517 1518 1519 1520 1521 1522 1523 1524 1525 1527 1528 1531
1505 1505 1507 1511 1513 1521 1512 1517 1517 1512 1509 1502 1496 1491 1485 1479 1472 1468 1465 1463 1463 1464 1467 1471 1473 1478 1484 1491 1497 1502 1505 1507 1508 1509 1510 1512 1513 1514 1515 1516 1517 1518 1518 1519 1520 1521 1522 1523 1525
1511 1517 1526 1525 1527 1523 1511 1514 1518 1511 1508 1505 1499 1493 1487 1481 1475 1470 1467 1465 1465 1466 1468 1471 1474 1478 1483 1489 1495 1500 1503 1506 1507 1508 1509 1510 1511 1512 1512 1513 1514 1515 1515 1515 1516 1516 1517 1519 1520
1517 1520 1531 1535 1531 1523 1513 1516 1516 1510 1508 1504 1499 1494 1488 1482 1477 1473 1471 1469 1468 1470 1471 1474 1475 1480 1485 1490 1495 1499 1502 1504 1506 1507 1508 1508 1509 1510 1510 1511 1512 1512 1512 1512 1512 1513 1514 1514 1515
1522 1524 1523 1528 1524 1524 1520 1516 1512 1509 1505 1502 1497 1493 1489 1484 1480 1475 1473 1472 1471 1471 1473 1475 1478 1483 1487 1492 1496 1499 1501 1503 1505 1507 1507 1508 1508 1508 1509 1509 1509 1509 1509 1509 1509 1510 1510 1510 1511
1524 1525 1529 1530 1531 1530 1522 1522 1524 1517 1511 1504 1499 1494 1490 1486 1482 1478 1475 1474 1473 1473 1474 1478 1482 1486 1489 1493 1496 1499 1501 1503 1505 1505 1506 1506 1506 1507 1507 1508 1507 1507 1507 1507 1507 1507 1507 1507 1508
1530 1529 1531 1532 1530 1531 1530 1531 1525 1523 1516 1509 1502 1496 1491 1487 1484 1480 1478 1476 1475 1476 1479 1481 1485 1489 1491 1494 1497 1499 1500 1502 1503 1503 1504 1504 1505 1505 1506 1506 1506 1506 1506 1506 1506 1506 1505 1505 1505
1532 1533 1532 1534 1531 1528 1530 1535 1526 1523 1517 1511 1504 1498 1493 1489 1486 1484 1482 1480 1479 1480 1482 1484 1487 1490 1492 1494 1496 1498 1499 1500 1501 1502 1502 1503 1503 1504 1504 1505 1505 1505 1505 1505 1505 1505 1504 1504 1503